This demonstration page uses our WeatherBlox Daily Observations layout. Learn more.

Left ArrowRight Arrow

Hourly Observations for November 21, 2022

Temp ( °F °C ) Dew Point ( °F °C ) Humidity (%) Winds ( mph kmh ) Pressure ( in mb ) Visibility ( mi km ) Precip ( " mm )
12:53 am 00:53 Clear 33 0.6 31 -0.6 92 92 SE 8 13 30.29 1026 8 13 0.00 0.00
1:53 am 01:53 Clear with Mist and Fog 30 -1.1 29 -1.7 96 96 ESE 5 7 30.29 1026 5 8 0.00 0.00
2:48 am 02:48 Partly Cloudy with Mist and Fog 28 -2 28 -2 100 100 E 5 7 30.40 1029 3 5 0.00 0.00
2:53 am 02:53 Mostly Cloudy with Mist and Fog 29 -1.7 27 -2.8 92 92 E 3 6 30.27 1025 3 5 0.00 0.00
3:00 am 03:00 Mostly Cloudy with Mist and Fog 29 -1.7 28 -2.2 96 96 E 3 6 30.39 1029 2 3 0.00 0.00
3:25 am 03:25 Mostly Clear with Freezing Fog 28 -2.2 27 -2.8 96 96 NE 3 6 30.40 1029 0 0 0.00 0.00
3:53 am 03:53 Mostly Clear with Freezing Fog 28 -2.2 26 -3.3 92 92 N 3 6 30.28 1025 0 0 0.00 0.00
4:53 am 04:53 Mostly Clear with Freezing Fog 29 -1.7 28 -2.2 96 96 N 3 6 30.27 1025 0 0 0.00 0.00
5:53 am 05:53 Mostly Clear with Freezing Fog 30 -1.1 28 -2.2 92 92 N 3 6 30.27 1025 0 0 0.00 0.00
6:53 am 06:53 Mostly Clear with Freezing Fog 31 -0.6 30 -1.1 96 96 N 3 6 30.28 1026 0 0 0.00 0.00
7:53 am 07:53 Partly Cloudy with Freezing Fog 31 -0.6 30 -1.1 96 96 N 3 6 30.30 1026 0 0 0.00 0.00
8:26 am 08:26 Partly Cloudy with Freezing Fog 31 -0.6 31 -0.6 100 100 Calm 30.42 1030 0 0 0.00 0.00
8:43 am 08:43 Partly Cloudy with Fog 32 0 32 0 100 100 N 3 6 30.42 1030 0 0 0.00 0.00
8:53 am 08:53 Partly Cloudy with Fog 32 0 32 0 100 100 NNW 3 6 30.32 1027 0 0 0.00 0.00
9:53 am 09:53 Partly Cloudy with Fog 34 1.1 34 1.1 100 100 Calm 30.35 1028 0 0 0.00 0.00
10:41 am 10:41 Cloudy with Fog 35 1.7 35 1.7 100 100 NNW 5 7 30.43 1030 1 1 0.00 0.00
10:53 am 10:53 Cloudy with Mist and Fog 35 1.7 35 1.7 100 100 NNW 3 6 30.35 1028 1 2 0.00 0.00
11:09 am 11:09 Cloudy with Mist and Fog 36 2.2 35 1.7 96 96 NNW 3 6 30.42 1030 3 5 0.00 0.00
11:49 am 11:49 Cloudy 37 3 36 2 93 93 W 3 6 30.39 1029 10 16 0.00 0.00
11:53 am 11:53 Cloudy 38 3.3 35 1.7 89 89 Calm 30.33 1027 10 16 0.00 0.00
12:17 pm 12:17 Mostly Sunny 41 5 36 2.2 82 82 Calm 30.35 1028 10 16 0.00 0.00
12:53 pm 12:53 Sunny 47 8.3 36 2.2 65 65 Calm 30.27 1025 10 16 0.00 0.00
1:53 pm 13:53 Sunny 51 10.6 35 1.7 54 54 Calm 30.24 1024 10 16 0.00 0.00
2:53 pm 14:53 Sunny 54 12.2 34 1.1 47 47 Calm 30.21 1023 10 16 0.00 0.00
3:53 pm 15:53 Sunny 56 13.3 33 0.6 42 42 Calm 30.21 1023 10 16 0.00 0.00
4:53 pm 16:53 Sunny 56 13.3 32 0 40 40 E 5 7 30.20 1023 10 16 0.00 0.00
5:53 pm 17:53 Clear 53 11.7 31 -0.6 43 43 SE 5 7 30.22 1023 10 16 0.00 0.00
6:53 pm 18:53 Clear 45 7.2 30 -1.1 55 55 SSE 8 13 30.24 1024 10 16 0.00 0.00
7:53 pm 19:53 Clear 44 6.7 31 -0.6 60 60 SSE 6 9 30.26 1025 10 16 0.00 0.00
8:53 pm 20:53 Clear 41 5 30 -1.1 65 65 SSE 9 15 30.27 1025 10 16 0.00 0.00
9:53 pm 21:53 Clear 39 3.9 31 -0.6 72 72 SE 8 13 30.29 1026 10 16 0.00 0.00
10:53 pm 22:53 Clear 37 2.8 31 -0.6 78 78 SE 7 11 30.29 1026 10 16 0.00 0.00
11:53 pm 23:53 Clear 36 2.2 32 0 85 85 SE 7 11 30.28 1026 10 16 0.00 0.00

Powered by AerisWeather